Location: Croagnes
(43.9363°N, 5.3265°E)
Time: 22:29:41
(UTC+00:00)

Meteor 1-16 Rocket - Pass Details

Date: 27 September 2020
Orbit: 790 x 908 km, 81.2° (Epoch: 22 October)

Event Time Altitude Azimuth Distance (km) Brightness Sun altitude
Exits shadow 22:01:26 19° 322° (NW) 2,030 6.6 -43.8°
Drops below altitude 10° 22:03:52 10° 344° (NNW) 2,579 7.3 -44.1°
Sets 22:06:54 0° 359° (N) 3,508 8.0 -44.3°
